QPF
0.05 0.05 0.06 0.04 0.04 0.06 0.07 0.06 0.06 0.04 0.03 0.03 0.02 0.03 0.03 0.05 0.07 0.09 0.09 0.12 0.09 0.07 0.05 0.04 0.04 0.04 0.03 0.02 0.01 0.02 0.02 0.03 0.03 0.03 0.04 0.04 0.06 0.06
0.03 0.04 0.04 0.04 0.04 0.05 0.06 0.06 0.05 0.05 0.04 0.04 0.05 0.08 0.05 0.06 0.06 0.05 0.05 0.07 0.09 0.09 0.07 0.07 0.06 0.05 0.03 0.02 0.02 0.03 0.03 0.02 0.03 0.03 0.04 0.04 0.04 0.04
0.02 0.02 0.02 0.03 0.04 0.04 0.05 0.06 0.06 0.08 0.07 0.06 0.07 0.07 0.05 0.05 0.05 0.05 0.05 0.05 0.07 0.09 0.08 0.07 0.06 0.07 0.05 0.06 0.05 0.05 0.03 0.02 0.02 0.04 0.05 0.05 0.05 0.04
0.02 0.02 0.02 0.03 0.04 0.06 0.11 0.12 0.11 0.10 0.10 0.09 0.07 0.07 0.05 0.04 0.04 0.04 0.04 0.04 0.04 0.06 0.07 0.07 0.06 0.04 0.04 0.05 0.05 0.05 0.04 0.03 0.02 0.02 0.03 0.03 0.04 0.04
0.03 0.04 0.05 0.05 0.05 0.07 0.09 0.10 0.10 0.08 0.07 0.06 0.04 0.04 0.04 0.05 0.06 0.06 0.04 0.05 0.04 0.04 0.05 0.06 0.06 0.04 0.03 0.03 0.03 0.03 0.03 0.02 0.02 0.03 0.02 0.02 0.02 0.03
0.06 0.06 0.04 0.03 0.03 0.03 0.03 0.05 0.05 0.03 0.03 0.04 0.03 0.03 0.04 0.05 0.07 0.06 0.05 0.05 0.04 0.03 0.04 0.05 0.05 0.04 0.03 0.03 0.02 0.02 0.02 0.02 0.01 0.02 0.02 0.02 0.02 0.02
0.05 0.04 0.04 0.03 0.02 0.02 0.02 0.02 0.02 0.02 0.03 0.03 0.03 0.03 0.03 0.04 0.06 0.06 0.07 0.05 0.04 0.03 0.03 0.03 0.04 0.03 0.03 0.03 0.03 0.03 0.02 0.02 0.02 0.02 0.02 0.02 0.02 0.02
0.03 0.02 0.02 0.02 0.02 0.02 0.02 0.02 0.02 0.02 0.03 0.03 0.03 0.03 0.02 0.04 0.06 0.07 0.06 0.04 0.03 0.02 0.02 0.01 0.02 0.02 0.02 0.03 0.03 0.03 0.03 0.03 0.03 0.03 0.02 0.02 0.01 0.01
0.03 0.03 0.02 0.02 0.02 0.02 0.02 0.02 0.02 0.03 0.03 0.03 0.03 0.03 0.03 0.03 0.04 0.05 0.04 0.03 0.02 0.01 0.02 0.02 0.02 0.02 0.02 0.02 0.02 0.03 0.04 0.04 0.04 0.04 0.03 0.02 0.02 0.01
0.03 0.03 0.03 0.03 0.03 0.02 0.02 0.01 0.01 0.01 0.02 0.03 0.03 0.04 0.04 0.04 0.05 0.06 0.06 0.05 0.03 0.02 0.02 0.02 0.01 0.01 0.01 0.01 0.02 0.03 0.04 0.04 0.04 0.04 0.03 0.03 0.03 0.02
0.03 0.03 0.03 0.03 0.03 0.03 0.02 0.01 0.01 0.01 0.02 0.03 0.03 0.04 0.04 0.05 0.06 0.06 0.06 0.05 0.03 0.02 0.02 0.02 0.02 0.02 0.01 0.01 0.01 0.03 0.03 0.04 0.05 0.05 0.04 0.04 0.03 0.03
0.03 0.03 0.04 0.03 0.03 0.02 0.01 0.01 0.01 0.02 0.03 0.03 0.03 0.03 0.03 0.05 0.06 0.05 0.04 0.04 0.03 0.02 0.02 0.02 0.03 0.04 0.03 0.02 0.02 0.03 0.03 0.03 0.03 0.04 0.04 0.04 0.03 0.03
0.01 0.01 0.02 0.03 0.02 0.02 0.02 0.02 0.01 0.03 0.03 0.03 0.04 0.04 0.05 0.05 0.05 0.04 0.04 0.04 0.04 0.02 0.02 0.02 0.03 0.04 0.04 0.03 0.02 0.03 0.03 0.03 0.03 0.02 0.02 0.03 0.04 0.04
0.01 0.02 0.03 0.03 0.02 0.02 0.02 0.02 0.02 0.03 0.03 0.04 0.05 0.04 0.04 0.04 0.04 0.04 0.04 0.04 0.04 0.04 0.04 0.05 0.04 0.04 0.05 0.05 0.05 0.05 0.05 0.05 0.04 0.04 0.04 0.04 0.03 0.04
0.01 0.02 0.03 0.02 0.01 0.02 0.02 0.03 0.03 0.03 0.03 0.03 0.03 0.03 0.04 0.05 0.05 0.04 0.04 0.05 0.05 0.05 0.05 0.07 0.07 0.07 0.07 0.07 0.07 0.07 0.07 0.06 0.05 0.04 0.03 0.03 0.02 0.02
0.02 0.02 0.02 0.02 0.02 0.02 0.02 0.02 0.02 0.03 0.03 0.03 0.03 0.03 0.04 0.04 0.05 0.05 0.05 0.05 0.05 0.04 0.04 0.05 0.08 0.10 0.09 0.09 0.09 0.08 0.06 0.05 0.04 0.04 0.03 0.02 0.02 0.02
0.02 0.02 0.01 0.02 0.02 0.02 0.02 0.02 0.02 0.02 0.03 0.04 0.04 0.04 0.05 0.06 0.06 0.06 0.05 0.05 0.05 0.05 0.06 0.06 0.08 0.10 0.09 0.08 0.06 0.06 0.05 0.05 0.05 0.04 0.04 0.03 0.02 0.02
0.03 0.02 0.02 0.02 0.02 0.03 0.03 0.03 0.03 0.03 0.03 0.03 0.03 0.03 0.04 0.05 0.05 0.04 0.04 0.04 0.04 0.04 0.04 0.05 0.06 0.08 0.08 0.06 0.06 0.06 0.07 0.07 0.08 0.05 0.03 0.02 0.02 0.02
0.04 0.03 0.02 0.02 0.02 0.03 0.03 0.05 0.04 0.04 0.05 0.05 0.04 0.04 0.04 0.04 0.04 0.03 0.04 0.04 0.04 0.04 0.04 0.04 0.05 0.05 0.06 0.06 0.06 0.07 0.09 0.10 0.08 0.06 0.03 0.02 0.01 0.02
0.04 0.05 0.04 0.03 0.02 0.02 0.02 0.03 0.05 0.05 0.06 0.06 0.05 0.05 0.06 0.06 0.05 0.04 0.03 0.03 0.04 0.04 0.04 0.04 0.05 0.05 0.06 0.07 0.07 0.10 0.12 0.10 0.07 0.05 0.03 0.02 0.02 0.02
0.04 0.04 0.04 0.04 0.03 0.02 0.02 0.02 0.04 0.05 0.05 0.06 0.06 0.09 0.11 0.13 0.12 0.09 0.07 0.06 0.05 0.05 0.04 0.04 0.04 0.05 0.04 0.05 0.06 0.08 0.09 0.09 0.08 0.06 0.04 0.03 0.02 0.02
0.02 0.02 0.04 0.04 0.04 0.03 0.03 0.03 0.03 0.03 0.03 0.04 0.05 0.06 0.08 0.11 0.11 0.10 0.09 0.07 0.05 0.04 0.04 0.04 0.04 0.03 0.04 0.04 0.04 0.04 0.05 0.04 0.05 0.06 0.06 0.05 0.04 0.04
0.04 0.03 0.03 0.04 0.04 0.04 0.03 0.03 0.03 0.03 0.03 0.04 0.05 0.06 0.06 0.06 0.06 0.05 0.05 0.05 0.05 0.04 0.04 0.04 0.04 0.04 0.03 0.03 0.03 0.03 0.03 0.04 0.03 0.03 0.04 0.03 0.03 0.03
MSLP
1014.34 1014.44 1014.56 1014.69 1014.80 1014.85 1014.83 1014.72 1014.54 1014.30 1014.02 1013.73 1013.44 1013.19 1012.99 1012.83 1012.72 1012.66 1012.65 1012.68 1012.75 1012.85 1012.96 1013.09 1013.22 1013.34 1013.44 1013.52 1013.57 1013.60 1013.62 1013.61 1013.59 1013.57 1013.53 1013.49 1013.44 1013.38
1013.78 1013.83 1013.91 1014.00 1014.08 1014.13 1014.13 1014.09 1013.99 1013.85 1013.67 1013.47 1013.27 1013.07 1012.88 1012.71 1012.57 1012.46 1012.39 1012.37 1012.40 1012.47 1012.57 1012.71 1012.86 1013.01 1013.16 1013.28 1013.39 1013.48 1013.55 1013.61 1013.66 1013.70 1013.73 1013.74 1013.75 1013.73
1013.25 1013.27 1013.30 1013.35 1013.40 1013.44 1013.47 1013.47 1013.45 1013.40 1013.32 1013.22 1013.09 1012.95 1012.79 1012.63 1012.47 1012.32 1012.21 1012.13 1012.11 1012.14 1012.22 1012.34 1012.49 1012.66 1012.83 1012.99 1013.14 1013.27 1013.39 1013.51 1013.61 1013.70 1013.79 1013.86 1013.90 1013.92
1012.77 1012.76 1012.77 1012.78 1012.81 1012.85 1012.89 1012.93 1012.97 1012.99 1013.00 1012.98 1012.93 1012.85 1012.73 1012.58 1012.42 1012.25 1012.10 1011.98 1011.92 1011.90 1011.95 1012.04 1012.18 1012.34 1012.51 1012.68 1012.84 1013.00 1013.15 1013.29 1013.43 1013.57 1013.69 1013.80 1013.89 1013.95
1012.33 1012.31 1012.31 1012.31 1012.33 1012.37 1012.42 1012.48 1012.56 1012.63 1012.70 1012.75 1012.76 1012.73 1012.65 1012.53 1012.38 1012.21 1012.05 1011.91 1011.81 1011.76 1011.77 1011.83 1011.93 1012.06 1012.20 1012.35 1012.50 1012.65 1012.80 1012.96 1013.11 1013.27 1013.43 1013.58 1013.71 1013.81
1011.91 1011.92 1011.92 1011.93 1011.95 1011.98 1012.03 1012.11 1012.20 1012.30 1012.40 1012.48 1012.54 1012.54 1012.51 1012.42 1012.30 1012.15 1011.99 1011.85 1011.74 1011.67 1011.65 1011.66 1011.72 1011.80 1011.89 1011.99 1012.10 1012.22 1012.35 1012.49 1012.65 1012.82 1013.00 1013.19 1013.36 1013.51
1011.52 1011.55 1011.57 1011.59 1011.61 1011.65 1011.70 1011.77 1011.85 1011.95 1012.05 1012.13 1012.20 1012.23 1012.22 1012.17 1012.08 1011.97 1011.85 1011.73 1011.62 1011.55 1011.50 1011.48 1011.48 1011.50 1011.53 1011.57 1011.62 1011.69 1011.78 1011.90 1012.05 1012.23 1012.43 1012.65 1012.87 1013.07
1011.15 1011.20 1011.25 1011.28 1011.31 1011.34 1011.37 1011.41 1011.46 1011.52 1011.59 1011.66 1011.71 1011.74 1011.75 1011.73 1011.68 1011.61 1011.53 1011.45 1011.37 1011.30 1011.24 1011.19 1011.15 1011.11 1011.08 1011.06 1011.05 1011.06 1011.11 1011.20 1011.34 1011.53 1011.75 1012.01 1012.27 1012.53
1010.81 1010.88 1010.94 1010.98 1011.01 1011.02 1011.02 1011.01 1011.01 1011.01 1011.02 1011.03 1011.05 1011.06 1011.07 1011.06 1011.05 1011.03 1011.00 1010.96 1010.92 1010.87 1010.81 1010.75 1010.67 1010.59 1010.50 1010.42 1010.36 1010.33 1010.35 1010.43 1010.57 1010.77 1011.02 1011.31 1011.61 1011.92
1010.51 1010.59 1010.66 1010.70 1010.70 1010.68 1010.64 1010.57 1010.50 1010.42 1010.35 1010.29 1010.25 1010.22 1010.21 1010.21 1010.22 1010.23 1010.24 1010.25 1010.25 1010.22 1010.18 1010.11 1010.02 1009.91 1009.79 1009.68 1009.59 1009.54 1009.55 1009.62 1009.77 1009.99 1010.27 1010.60 1010.94 1011.29
1010.27 1010.36 1010.41 1010.43 1010.41 1010.35 1010.25 1010.12 1009.96 1009.80 1009.64 1009.50 1009.39 1009.31 1009.26 1009.25 1009.26 1009.29 1009.33 1009.37 1009.40 1009.40 1009.37 1009.31 1009.21 1009.10 1008.97 1008.85 1008.76 1008.71 1008.73 1008.83 1009.00 1009.25 1009.55 1009.91 1010.28 1010.65
1010.11 1010.18 1010.21 1010.21 1010.16 1010.05 1009.90 1009.70 1009.47 1009.22 1008.98 1008.76 1008.57 1008.44 1008.35 1008.30 1008.30 1008.33 1008.38 1008.43 1008.47 1008.48 1008.46 1008.41 1008.32 1008.21 1008.09 1007.98 1007.91 1007.88 1007.93 1008.05 1008.26 1008.53 1008.86 1009.23 1009.61 1009.99
1010.01 1010.06 1010.08 1010.05 1009.96 1009.82 1009.62 1009.36 1009.07 1008.76 1008.46 1008.17 1007.93 1007.73 1007.60 1007.52 1007.48 1007.49 1007.52 1007.56 1007.58 1007.59 1007.56 1007.50 1007.41 1007.31 1007.21 1007.12 1007.07 1007.08 1007.15 1007.31 1007.53 1007.82 1008.16 1008.53 1008.91 1009.27
1009.99 1010.02 1010.01 1009.96 1009.85 1009.68 1009.45 1009.17 1008.84 1008.50 1008.15 1007.83 1007.54 1007.30 1007.12 1007.00 1006.92 1006.89 1006.87 1006.87 1006.85 1006.82 1006.76 1006.68 1006.58 1006.48 1006.38 1006.30 1006.27 1006.30 1006.39 1006.56 1006.79 1007.08 1007.41 1007.76 1008.11 1008.45
1010.02 1010.04 1010.03 1009.96 1009.85 1009.67 1009.44 1009.15 1008.82 1008.47 1008.12 1007.78 1007.47 1007.21 1006.99 1006.82 1006.69 1006.60 1006.52 1006.44 1006.37 1006.27 1006.16 1006.03 1005.90 1005.76 1005.65 1005.56 1005.53 1005.55 1005.64 1005.79 1006.00 1006.26 1006.55 1006.87 1007.18 1007.47
1010.12 1010.14 1010.13 1010.07 1009.96 1009.80 1009.58 1009.32 1009.02 1008.69 1008.36 1008.04 1007.73 1007.45 1007.21 1007.00 1006.81 1006.65 1006.48 1006.33 1006.16 1005.98 1005.79 1005.59 1005.39 1005.21 1005.04 1004.92 1004.85 1004.83 1004.87 1004.98 1005.13 1005.33 1005.56 1005.82 1006.08 1006.33
1010.29 1010.32 1010.33 1010.29 1010.21 1010.08 1009.90 1009.68 1009.42 1009.14 1008.85 1008.55 1008.26 1007.99 1007.73 1007.47 1007.23 1006.99 1006.74 1006.48 1006.21 1005.93 1005.65 1005.36 1005.08 1004.82 1004.59 1004.40 1004.25 1004.16 1004.12 1004.14 1004.20 1004.31 1004.46 1004.63 1004.82 1005.03
1010.55 1010.61 1010.63 1010.62 1010.58 1010.49 1010.35 1010.19 1009.98 1009.76 1009.51 1009.25 1008.99 1008.71 1008.44 1008.15 1007.85 1007.53 1007.20 1006.84 1006.48 1006.09 1005.71 1005.33 1004.95 1004.60 1004.28 1004.00 1003.75 1003.56 1003.41 1003.31 1003.25 1003.25 1003.28 1003.36 1003.48 1003.64
1010.91 1010.99 1011.05 1011.07 1011.06 1011.01 1010.92 1010.80 1010.64 1010.46 1010.26 1010.03 1009.78 1009.51 1009.21 1008.89 1008.53 1008.15 1007.74 1007.30 1006.85 1006.38 1005.90 1005.43 1004.97 1004.53 1004.11 1003.73 1003.37 1003.06 1002.78 1002.55 1002.36 1002.22 1002.14 1002.12 1002.16 1002.27
1011.36 1011.46 1011.54 1011.59 1011.61 1011.59 1011.53 1011.44 1011.32 1011.17 1010.99 1010.78 1010.53 1010.25 1009.93 1009.57 1009.17 1008.73 1008.26 1007.76 1007.23 1006.69 1006.15 1005.61 1005.07 1004.56 1004.05 1003.57 1003.11 1002.68 1002.27 1001.90 1001.58 1001.31 1001.11 1000.99 1000.95 1001.01
1011.85 1011.98 1012.08 1012.14 1012.18 1012.17 1012.13 1012.06 1011.95 1011.80 1011.63 1011.41 1011.15 1010.85 1010.50 1010.11 1009.67 1009.19 1008.67 1008.12 1007.54 1006.96 1006.37 1005.78 1005.20 1004.62 1004.05 1003.49 1002.93 1002.40 1001.88 1001.39 1000.94 1000.56 1000.25 1000.03 999.93 999.94
1012.31 1012.46 1012.57 1012.64 1012.68 1012.68 1012.64 1012.56 1012.44 1012.29 1012.10 1011.86 1011.58 1011.26 1010.88 1010.45 1009.98 1009.46 1008.91 1008.32 1007.72 1007.11 1006.49 1005.88 1005.26 1004.64 1004.02 1003.40 1002.77 1002.15 1001.54 1000.96 1000.42 999.94 999.55 999.27 999.11 999.09
1012.66 1012.81 1012.92 1013.00 1013.03 1013.02 1012.97 1012.88 1012.75 1012.58 1012.36 1012.11 1011.80 1011.45 1011.04 1010.58 1010.08 1009.53 1008.95 1008.35 1007.72 1007.09 1006.45 1005.80 1005.16 1004.50 1003.85 1003.18 1002.50 1001.83 1001.16 1000.52 999.92 999.39 998.95 998.63 998.45 998.41
Thickness
5739 5737 5735 5734 5734 5733 5731 5727 5721 5716 5719 5725 5728 5732 5732 5732 5731 5730 5729 5729 5729 5729 5728 5727 5726 5725 5724 5723 5723 5722 5721 5720 5718 5717 5716 5715 5713 5712
5735 5733 5731 5730 5729 5728 5726 5724 5721 5716 5713 5718 5721 5725 5726 5726 5725 5724 5724 5724 5724 5723 5722 5722 5721 5721 5720 5719 5719 5718 5716 5715 5714 5713 5712 5712 5710 5709
5730 5728 5726 5726 5724 5723 5721 5718 5716 5714 5710 5713 5716 5718 5718 5718 5718 5718 5719 5718 5718 5717 5717 5716 5716 5715 5715 5714 5714 5713 5712 5711 5710 5709 5708 5707 5707 5705
5725 5722 5721 5721 5718 5716 5715 5713 5711 5710 5707 5705 5707 5709 5710 5711 5711 5711 5712 5712 5711 5712 5711 5710 5710 5709 5709 5709 5708 5707 5706 5706 5705 5704 5704 5703 5702 5701
5720 5717 5716 5714 5712 5711 5709 5708 5706 5706 5703 5700 5699 5701 5702 5703 5702 5703 5703 5703 5704 5705 5704 5704 5703 5703 5703 5702 5701 5701 5700 5700 5700 5699 5698 5697 5696 5695
5714 5712 5710 5708 5707 5706 5704 5702 5701 5698 5696 5693 5692 5693 5693 5695 5693 5692 5692 5694 5695 5697 5696 5696 5696 5696 5696 5696 5695 5694 5694 5693 5693 5692 5692 5691 5690 5689
5708 5707 5705 5704 5703 5701 5700 5697 5695 5691 5689 5687 5685 5685 5685 5685 5684 5685 5684 5685 5686 5688 5688 5688 5688 5688 5688 5687 5687 5688 5687 5687 5686 5685 5685 5684 5683 5682
5701 5700 5699 5698 5697 5696 5695 5694 5691 5687 5684 5681 5680 5678 5679 5679 5679 5679 5676 5675 5675 5680 5678 5679 5679 5679 5680 5680 5680 5680 5680 5680 5679 5678 5677 5676 5676 5674
5695 5693 5693 5693 5690 5688 5687 5687 5686 5685 5683 5679 5675 5674 5674 5674 5673 5672 5670 5669 5669 5672 5670 5670 5671 5670 5672 5673 5673 5673 5673 5672 5672 5671 5670 5669 5668 5667
5689 5687 5685 5684 5684 5682 5680 5678 5677 5677 5676 5675 5673 5673 5672 5671 5669 5668 5666 5664 5663 5664 5664 5661 5663 5663 5665 5665 5665 5665 5665 5665 5664 5663 5662 5661 5660 5659
5683 5681 5679 5678 5678 5676 5673 5670 5670 5670 5671 5670 5669 5668 5668 5666 5664 5660 5657 5654 5653 5655 5657 5655 5656 5655 5656 5657 5658 5658 5657 5657 5656 5655 5654 5653 5652 5651
5677 5676 5675 5673 5672 5669 5666 5664 5662 5663 5662 5662 5662 5662 5661 5660 5659 5656 5653 5649 5647 5647 5650 5648 5647 5646 5645 5648 5649 5650 5649 5648 5648 5647 5646 5645 5644 5642
5670 5669 5668 5667 5665 5663 5661 5659 5658 5657 5655 5654 5653 5653 5653 5652 5652 5651 5649 5646 5642 5641 5644 5642 5639 5638 5636 5638 5640 5641 5640 5640 5639 5638 5638 5637 5636 5635
5664 5664 5663 5661 5659 5658 5656 5655 5653 5651 5648 5647 5646 5645 5645 5645 5645 5645 5643 5642 5640 5639 5638 5636 5633 5631 5629 5628 5630 5632 5631 5631 5630 5630 5630 5629 5628 5627
5658 5658 5656 5655 5653 5652 5651 5649 5647 5644 5641 5639 5639 5639 5640 5640 5639 5638 5637 5635 5634 5633 5632 5630 5628 5626 5624 5622 5622 5622 5621 5622 5622 5622 5621 5620 5620 5619
5650 5649 5648 5647 5646 5645 5644 5642 5640 5638 5636 5634 5634 5633 5633 5632 5631 5630 5628 5627 5625 5624 5624 5624 5622 5620 5617 5617 5615 5614 5614 5613 5614 5614 5613 5613 5612 5612
5642 5640 5638 5637 5636 5636 5635 5633 5632 5631 5630 5629 5627 5626 5625 5624 5623 5622 5620 5618 5616 5615 5615 5615 5614 5613 5611 5609 5607 5607 5607 5607 5607 5606 5605 5604 5604 5604
5633 5631 5630 5629 5628 5628 5626 5625 5625 5624 5623 5622 5621 5619 5617 5616 5615 5614 5612 5610 5608 5606 5606 5605 5604 5603 5601 5601 5601 5600 5600 5600 5600 5598 5597 5595 5595 5595
5624 5624 5623 5622 5620 5620 5619 5618 5617 5617 5616 5615 5614 5612 5610 5609 5607 5606 5605 5603 5601 5599 5598 5597 5595 5594 5592 5592 5594 5594 5593 5592 5592 5590 5589 5587 5587 5588
5616 5616 5615 5614 5613 5612 5611 5610 5609 5608 5607 5607 5606 5605 5603 5602 5600 5599 5598 5596 5594 5592 5591 5590 5588 5587 5586 5585 5586 5587 5587 5586 5585 5583 5582 5581 5580 5581
5610 5609 5607 5606 5605 5604 5603 5602 5601 5600 5599 5598 5597 5596 5596 5594 5593 5592 5591 5589 5587 5585 5583 5583 5582 5583 5581 5580 5578 5579 5580 5580 5580 5578 5576 5574 5573 5573
5603 5602 5601 5599 5598 5597 5595 5594 5592 5591 5590 5590 5589 5588 5588 5587 5586 5585 5584 5582 5580 5578 5577 5576 5576 5575 5574 5573 5572 5572 5572 5573 5574 5574 5573 5572 5569 5567
5598 5596 5595 5593 5592 5590 5588 5586 5584 5583 5582 5581 5580 5580 5580 5579 5579 5578 5576 5575 5573 5571 5570 5569 5568 5567 5566 5566 5565 5565 5566 5566 5566 5565 5564 5565 5565 5565